| time (UTC) | temp C | wind direction | speed KPH | gust KPH | rain 1hr cm | rain 24hr cm | rain mn cm | humidity % | barometer mb |
| 20260906201516 | 28 | 288 | 3.2 | 11.3 | 0.00 | 0.00 | 0.00 | 79 | 1016.1 |
| 20260906200015 | 28 | 311 | 1.6 | 17.7 | 0.00 | 0.00 | 0.00 | 79 | 1015.7 |
| 20260906194514 | 28 | 225 | 4.8 | 17.7 | 0.00 | 0.00 | 0.00 | 77 | 1015.7 |
| 20260906193013 | 29 | 186 | 3.2 | 12.9 | 0.00 | 0.00 | 0.00 | 76 | 1015.6 |
| 20260906191515 | 30 | 298 | 1.6 | 19.3 | 0.00 | 0.00 | 0.00 | 75 | 1015.7 |
| 20260906190012 | 30 | 242 | 3.2 | 17.7 | 0.00 | 0.00 | 0.00 | 75 | 1015.8 |
| 20260906184510 | 30 | 284 | 0.0 | 9.7 | 0.00 | 0.00 | 0.00 | 72 | 1015.9 |
| 20260906183009 | 30 | 288 | 4.8 | 17.7 | 0.00 | 0.00 | 0.00 | 73 | 1015.8 |
| 20260906181519 | 30 | 9 | 3.2 | 17.7 | 0.00 | 0.00 | 0.00 | 74 | 1015.7 |
| 20260906180006 | 29 | 306 | 4.8 | 14.5 | 0.00 | 0.00 | 0.00 | 75 | 1016.0 |
| 20260906174502 | 29 | 323 | 0.0 | 11.3 | 0.00 | 0.00 | 0.00 | 76 | 1016.0 |
| 20260906173100 | 29 | 317 | 0.0 | 11.3 | 0.00 | 0.00 | 0.00 | 75 | 1016.3 |
| 20260906171613 | 29 | 281 | 4.8 | 16.1 | 0.00 | 0.00 | 0.00 | 75 | 1016.5 |
| 20260906170103 | 30 | 316 | 0.0 | 4.8 | 0.00 | 0.00 | 0.00 | 74 | 1016.7 |
| 20260906164553 | 29 | 298 | 1.6 | 11.3 | 0.00 | 0.00 | 0.00 | 76 | 1016.8 |
| 20260906163052 | 28 | 258 | 3.2 | 11.3 | 0.00 | 0.00 | 0.00 | 77 | 1017.1 |
| 20260906161613 | 28 | 336 | 0.0 | 8.0 | 0.00 | 0.00 | 0.00 | 78 | 1017.2 |
| 20260906160046 | 27 | 322 | 0.0 | 3.2 | 0.00 | 0.00 | 0.00 | 81 | 1017.2 |
| 20260906154548 | 27 | 319 | 0.0 | 11.3 | 0.00 | 0.00 | 0.00 | 81 | 1017.1 |
| 20260906153059 | 26 | 323 | 0.0 | 3.2 | 0.00 | 0.00 | 0.00 | 83 | 1017.2 |
| 20260906151538 | 26 | 336 | 0.0 | 4.8 | 0.00 | 0.00 | 0.00 | 85 | 1017.1 |
| 20260906150039 | 25 | 296 | 0.0 | 8.0 | 0.00 | 0.00 | 0.00 | 86 | 1017.2 |
| 20260906144535 | 25 | 353 | 0.0 | 6.4 | 0.00 | 0.00 | 0.00 | 86 | 1017.2 |
| 20260906143033 | 25 | 349 | 0.0 | 3.2 | 0.00 | 0.00 | 0.00 | 87 | 1017.3 |
| 20260906141528 | 24 | 356 | 0.0 | 3.2 | 0.00 | 0.00 | 0.00 | 88 | 1017.4 |
| 20260906140025 | 23 | 333 | 0.0 | 3.2 | 0.00 | 0.00 | 0.00 | 90 | 1017.7 |
| 20260906134524 | 23 | 7 | 0.0 | 3.2 | 0.00 | 0.00 | 0.00 | 89 | 1017.8 |
| 20260906133031 | 23 | 318 | 0.0 | 1.6 | 0.00 | 0.00 | 0.00 | 90 | 1017.9 |
| 20260906131521 | 22 | 301 | 0.0 | 3.2 | 0.00 | 0.00 | 0.00 | 92 | 1017.9 |
| 20260906130023 | 22 | 308 | 0.0 | 3.2 | 0.00 | 0.00 | 0.00 | 92 | 1017.8 |
| 20260906124517 | 21 | 306 | 0.0 | 1.6 | 0.00 | 0.00 | 0.00 | 93 | 1017.6 |
| 20260906123020 | 21 | 311 | 0.0 | 6.4 | 0.00 | 0.00 | 0.00 | 93 | 1017.4 |
| 20260906121531 | 21 | 294 | 0.0 | 4.8 | 0.00 | 0.00 | 0.00 | 93 | 1017.3 |
| 20260906120015 | 21 | 292 | 0.0 | 1.6 | 0.00 | 0.00 | 0.00 | 93 | 1017.4 |
| 20260906114528 | 21 | 287 | 0.0 | 3.2 | 0.00 | 0.00 | 0.00 | 92 | 1017.5 |
| 20260906113013 | 21 | 290 | 1.6 | 6.4 | 0.00 | 0.00 | 0.00 | 92 | 1017.3 |
| 20260906111513 | 21 | 297 | 0.0 | 8.0 | 0.00 | 0.00 | 0.00 | 92 | 1017.3 |
| 20260906110012 | 21 | 313 | 0.0 | 8.0 | 0.00 | 0.00 | 0.00 | 92 | 1017.3 |
| 20260906104510 | 21 | 263 | 1.6 | 9.7 | 0.00 | 0.00 | 0.00 | 93 | 1017.3 |
| 20260906103014 | 21 | 290 | 0.0 | 4.8 | 0.00 | 0.00 | 0.00 | 95 | 1017.1 |
| 20260906101511 | 20 | 338 | 0.0 | 0.0 | 0.00 | 0.00 | 0.00 | 96 | 1017.1 |
| 20260906100016 | 20 | 339 | 0.0 | 0.0 | 0.00 | 0.00 | 0.00 | 95 | 1017.1 |
| 20260906094509 | 19 | 338 | 0.0 | 0.0 | 0.00 | 0.00 | 0.00 | 94 | 1017.0 |
| 20260906093010 | 19 | 339 | 0.0 | 0.0 | 0.00 | 0.00 | 0.00 | 94 | 1017.0 |
| 20260906091507 | 20 | 338 | 0.0 | 0.0 | 0.00 | 0.00 | 0.00 | 93 | 1017.1 |
| 20260906090006 | 20 | 338 | 0.0 | 0.0 | 0.00 | 0.00 | 0.00 | 93 | 1017.4 |
| 20260906084507 | 20 | 9 | 0.0 | 1.6 | 0.00 | 0.00 | 0.00 | 93 | 1017.2 |
| 20260906083104 | 20 | 9 | 0.0 | 3.2 | 0.00 | 0.00 | 0.00 | 92 | 1017.1 |
| 20260906081558 | 21 | 5 | 0.0 | 1.6 | 0.00 | 0.00 | 0.00 | 90 | 1017.0 |
| 20260906080055 | 22 | 346 | 0.0 | 0.0 | 0.00 | 0.00 | 0.00 | 89 | 1016.9 |
| 20260906074550 | 22 | 337 | 0.0 | 0.0 | 0.00 | 0.00 | 0.00 | 88 | 1016.9 |
| 20260906073051 | 22 | 304 | 0.0 | 1.6 | 0.00 | 0.00 | 0.00 | 87 | 1016.9 |
| 20260906071550 | 22 | 320 | 0.0 | 1.6 | 0.00 | 0.00 | 0.00 | 87 | 1017.0 |
| 20260906070049 | 23 | 320 | 0.0 | 1.6 | 0.00 | 0.00 | 0.00 | 86 | 1017.0 |
| 20260906064549 | 23 | 304 | 0.0 | 6.4 | 0.00 | 0.00 | 0.00 | 86 | 1016.8 |
| 20260906063047 | 23 | 329 | 0.0 | 8.0 | 0.00 | 0.00 | 0.00 | 86 | 1016.9 |
| 20260906061549 | 22 | 291 | 1.6 | 8.0 | 0.00 | 0.00 | 0.00 | 88 | 1016.9 |
| 20260906060054 | 22 | 311 | 0.0 | 4.8 | 0.00 | 0.00 | 0.00 | 88 | 1017.0 |
| 20260906054546 | 22 | 307 | 0.0 | 1.6 | 0.00 | 0.00 | 0.00 | 88 | 1017.0 |
| 20260906053043 | 22 | 343 | 0.0 | 1.6 | 0.00 | 0.00 | 0.00 | 88 | 1016.8 |
| 20260906051542 | 22 | 346 | 0.0 | 1.6 | 0.00 | 0.00 | 0.00 | 88 | 1016.9 |
| 20260906050039 | 22 | 347 | 0.0 | 1.6 | 0.00 | 0.00 | 0.00 | 89 | 1017.0 |
| 20260906044539 | 22 | 358 | 0.0 | 0.0 | 0.00 | 0.00 | 0.00 | 89 | 1017.0 |
| 20260906043038 | 22 | 360 | 0.0 | 0.0 | 0.00 | 0.00 | 0.00 | 88 | 1017.3 |
| 20260906041538 | 22 | 1 | 0.0 | 3.2 | 0.00 | 0.00 | 0.00 | 88 | 1017.2 |
| 20260906040037 | 22 | 5 | 0.0 | 1.6 | 0.00 | 0.00 | 0.00 | 87 | 1017.3 |
| 20260906034553 | 22 | 10 | 0.0 | 1.6 | 0.00 | 0.00 | 0.00 | 87 | 1017.2 |
| 20260906033040 | 22 | 10 | 0.0 | 1.6 | 0.00 | 0.00 | 0.00 | 86 | 1017.5 |
| 20260906031537 | 22 | 14 | 0.0 | 1.6 | 0.00 | 0.00 | 0.00 | 86 | 1017.6 |
| 20260906030037 | 23 | 11 | 0.0 | 1.6 | 0.00 | 0.00 | 0.00 | 84 | 1017.9 |
| 20260906024539 | 23 | 319 | 0.0 | 0.0 | 0.00 | 0.00 | 0.00 | 83 | 1017.8 |
| 20260906023034 | 24 | 319 | 0.0 | 0.0 | 0.00 | 0.00 | 0.00 | 82 | 1017.5 |
| 20260906021541 | 24 | 319 | 0.0 | 0.0 | 0.00 | 0.00 | 0.00 | 80 | 1017.2 |
| 20260906020033 | 25 | 319 | 0.0 | 0.0 | 0.00 | 0.00 | 0.00 | 78 | 1016.8 |
| 20260906014533 | 25 | 304 | 0.0 | 1.6 | 0.00 | 0.00 | 0.00 | 77 | 1016.6 |
| 20260906013033 | 26 | 299 | 0.0 | 1.6 | 0.00 | 0.00 | 0.00 | 75 | 1016.5 |
| 20260906011533 | 26 | 296 | 0.0 | 1.6 | 0.00 | 0.00 | 0.00 | 74 | 1016.4 |
| 20260906010037 | 26 | 288 | 0.0 | 3.2 | 0.00 | 0.00 | 0.00 | 73 | 1016.3 |
| 20260906004532 | 27 | 288 | 0.0 | 6.4 | 0.00 | 0.00 | 0.00 | 71 | 1016.5 |
| 20260906003031 | 27 | 280 | 0.0 | 8.0 | 0.00 | 0.00 | 0.00 | 69 | 1016.4 |
| 20260906001546 | 27 | 351 | 0.0 | 8.0 | 0.00 | 0.00 | 0.00 | 69 | 1016.3 |
| 20260906000031 | 28 | 316 | 0.0 | 3.2 | 0.00 | 0.00 | 0.00 | 68 | 1016.0 |
| 20260905234529 | 28 | 325 | 0.0 | 4.8 | 0.00 | 0.00 | 0.00 | 66 | 1015.4 |
| 20260905233032 | 28 | 97 | 1.6 | 4.8 | 0.00 | 0.00 | 0.00 | 65 | 1015.1 |
| 20260905231529 | 29 | 90 | 0.0 | 6.4 | 0.00 | 0.00 | 0.00 | 64 | 1015.0 |
| 20260905230034 | 29 | 18 | 0.0 | 8.0 | 0.00 | 0.00 | 0.00 | 63 | 1014.9 |
| 20260905224530 | 29 | 335 | 1.6 | 4.8 | 0.00 | 0.00 | 0.00 | 63 | 1014.8 |
| 20260905223041 | 30 | 327 | 0.0 | 6.4 | 0.00 | 0.00 | 0.00 | 63 | 1014.7 |
| 20260905221526 | 29 | 232 | 1.6 | 6.4 | 0.00 | 0.00 | 0.00 | 63 | 1014.8 |
| 20260905220025 | 30 | 341 | 1.6 | 4.8 | 0.00 | 0.00 | 0.00 | 61 | 1015.0 |
| 20260905214522 | 30 | 100 | 4.8 | 9.7 | 0.00 | 0.00 | 0.00 | 60 | 1015.2 |
| 20260905213020 | 29 | 109 | 6.4 | 12.9 | 0.00 | 0.00 | 0.00 | 60 | 1015.3 |
| 20260905211518 | 29 | 3 | 4.8 | 19.3 | 0.00 | 0.00 | 0.00 | 61 | 1015.7 |
| 20260905210019 | 29 | 104 | 8.0 | 17.7 | 0.00 | 0.00 | 0.00 | 62 | 1015.7 |
| 20260905204513 | 28 | 102 | 8.0 | 17.7 | 0.00 | 0.00 | 0.00 | 64 | 1015.9 |
| 20260905203015 | 28 | 92 | 9.7 | 19.3 | 0.00 | 0.00 | 0.00 | 64 | 1016.3 |